Location: Christchurch
(43.5330°S, 172.6330°E)
Time: 23:45:25
(UTC+13:00)

Cosmos 2219 Rocket - Visible Passes

Search period start: 15 December 2019 00:00
Search period end: 25 December 2019 00:00
Orbit: 827 x 848 km, 71.0° (Epoch: 15 December)

Date Brightness Start Highest point End Pass type
(mag) Time Alt. Az. Time Alt. Az. Time Alt. Az.
15 Dec 3.0 04:46:29 10° N 04:51:56 51° ENE 04:57:26 10° SE visible
16 Dec 3.1 04:30:11 10° N 04:35:34 47° ENE 04:41:00 10° SE visible
17 Dec 3.1 04:13:53 10° N 04:19:13 43° ENE 04:24:34 10° SE visible
18 Dec 3.2 03:57:51 11° N 04:02:51 40° ENE 04:08:08 10° SE visible
19 Dec 3.3 03:42:06 14° NNE 03:46:30 37° ENE 03:51:40 10° SE visible
20 Dec 3.4 03:26:20 16° NNE 03:30:08 34° ENE 03:35:13 10° SE visible
21 Dec 3.5 03:10:30 18° NNE 03:13:48 32° ENE 03:18:45 10° SE visible
21 Dec 3.0 04:52:17 10° NW 04:57:36 40° WSW 05:02:57 10° SSE visible
22 Dec 3.5 02:54:38 20° NNE 02:57:26 30° ENE 03:02:17 10° SE visible
22 Dec 2.9 04:36:22 13° NW 04:41:11 43° WSW 04:46:36 10° SSE visible
23 Dec 3.6 02:38:44 21° NE 02:41:05 27° ENE 02:45:48 10° SE visible
23 Dec 2.8 04:20:27 16° NW 04:24:46 46° WSW 04:30:14 10° SSE visible
24 Dec 3.6 02:22:48 21° NE 02:24:45 25° ENE 02:29:18 10° SE visible
24 Dec 2.7 04:04:31 19° NW 04:08:22 49° WSW 04:13:53 10° SSE visible
